Year,Month,Day,Hour,Minute,Value (Times are PST for temperature in C)
2015,09,10,00,00,13.70
2015,09,10,00,01,13.70
2015,09,10,00,02,13.70
2015,09,10,00,03,13.70
2015,09,10,00,04,13.70
2015,09,10,00,05,13.60
2015,09,10,00,06,13.60
2015,09,10,00,07,13.60
2015,09,10,00,08,13.60
2015,09,10,00,09,13.60
2015,09,10,00,10,13.60
2015,09,10,00,11,13.50
2015,09,10,00,12,13.50
2015,09,10,00,13,13.50
2015,09,10,00,14,13.40
2015,09,10,00,15,13.40
2015,09,10,00,16,13.40
2015,09,10,00,17,13.40
2015,09,10,00,18,13.40
2015,09,10,00,19,13.30
2015,09,10,00,20,13.30
2015,09,10,00,21,13.30
2015,09,10,00,22,13.30
2015,09,10,00,23,13.30
2015,09,10,00,24,13.30
2015,09,10,00,25,13.30
2015,09,10,00,26,13.30
2015,09,10,00,27,13.30
2015,09,10,00,28,13.30
2015,09,10,00,29,13.30
2015,09,10,00,30,13.30
2015,09,10,00,31,13.30
2015,09,10,00,32,13.30
2015,09,10,00,33,13.40
2015,09,10,00,34,13.40
2015,09,10,00,35,13.40
2015,09,10,00,36,13.40
2015,09,10,00,37,13.50
2015,09,10,00,38,13.50
2015,09,10,00,39,13.50
2015,09,10,00,40,13.50
2015,09,10,00,41,13.50
2015,09,10,00,42,13.60
2015,09,10,00,43,13.60
2015,09,10,00,44,13.60
2015,09,10,00,45,13.60
2015,09,10,00,46,13.60
2015,09,10,00,47,13.60
2015,09,10,00,48,13.60
2015,09,10,00,49,13.50
2015,09,10,00,50,13.50
2015,09,10,00,51,13.40
2015,09,10,00,52,13.40
2015,09,10,00,53,13.40
2015,09,10,00,54,13.40
2015,09,10,00,55,13.40
2015,09,10,00,56,13.40
2015,09,10,00,57,13.30
2015,09,10,00,58,13.30
2015,09,10,00,59,13.30
2015,09,10,01,00,13.30
2015,09,10,01,01,13.20
2015,09,10,01,02,13.20
2015,09,10,01,03,13.20
2015,09,10,01,04,13.30
2015,09,10,01,05,13.30
2015,09,10,01,06,13.30
2015,09,10,01,07,13.30
2015,09,10,01,08,13.30
2015,09,10,01,09,13.30
2015,09,10,01,10,13.30
2015,09,10,01,11,13.30
2015,09,10,01,12,13.30
2015,09,10,01,13,13.30
2015,09,10,01,14,13.20
2015,09,10,01,15,13.20
2015,09,10,01,16,13.20
2015,09,10,01,17,13.30
2015,09,10,01,18,13.30
2015,09,10,01,19,13.40
2015,09,10,01,20,13.70
2015,09,10,01,21,13.90
2015,09,10,01,22,13.80
2015,09,10,01,23,13.70
2015,09,10,01,24,13.90
2015,09,10,01,25,13.90
2015,09,10,01,26,13.90
2015,09,10,01,27,14.00
2015,09,10,01,28,14.10
2015,09,10,01,29,14.20
2015,09,10,01,30,14.40
2015,09,10,01,31,14.60
2015,09,10,01,32,14.70
2015,09,10,01,33,14.70
2015,09,10,01,34,14.80
2015,09,10,01,35,14.90
2015,09,10,01,36,15.00
2015,09,10,01,37,14.90
2015,09,10,01,38,14.80
2015,09,10,01,39,14.80
2015,09,10,01,40,14.90
2015,09,10,01,41,15.00
2015,09,10,01,42,15.10
2015,09,10,01,43,15.10
2015,09,10,01,44,15.10
2015,09,10,01,45,15.00
2015,09,10,01,46,15.10
2015,09,10,01,47,15.00
2015,09,10,01,48,15.00
2015,09,10,01,49,15.00
2015,09,10,01,50,15.10
2015,09,10,01,51,15.10
2015,09,10,01,52,15.10
2015,09,10,01,53,15.10
2015,09,10,01,54,15.10
2015,09,10,01,55,15.20
2015,09,10,01,56,15.20
2015,09,10,01,57,15.20
2015,09,10,01,58,15.20
2015,09,10,01,59,15.30
2015,09,10,02,00,15.30
2015,09,10,02,01,15.30
2015,09,10,02,02,15.30
2015,09,10,02,03,15.30
2015,09,10,02,04,15.30
2015,09,10,02,05,15.40
2015,09,10,02,06,15.40
2015,09,10,02,07,15.40
2015,09,10,02,08,15.40
2015,09,10,02,09,15.40
2015,09,10,02,10,15.40
2015,09,10,02,11,15.40
2015,09,10,02,12,15.40
2015,09,10,02,13,15.40
2015,09,10,02,14,15.40
2015,09,10,02,15,15.40
2015,09,10,02,16,15.40
2015,09,10,02,17,15.40
2015,09,10,02,18,15.50
2015,09,10,02,19,15.50
2015,09,10,02,20,15.50
2015,09,10,02,21,15.40
2015,09,10,02,22,15.30
2015,09,10,02,23,15.00
2015,09,10,02,24,14.80
2015,09,10,02,25,14.70
2015,09,10,02,26,14.60
2015,09,10,02,27,14.30
2015,09,10,02,28,14.10
2015,09,10,02,29,13.90
2015,09,10,02,30,13.70
2015,09,10,02,31,13.60
2015,09,10,02,32,13.50
2015,09,10,02,33,13.40
2015,09,10,02,34,13.30
2015,09,10,02,35,13.30
2015,09,10,02,36,13.30
2015,09,10,02,37,13.30
2015,09,10,02,38,13.40
2015,09,10,02,39,13.50
2015,09,10,02,40,13.60
2015,09,10,02,41,13.50
2015,09,10,02,42,13.60
2015,09,10,02,43,13.60
2015,09,10,02,44,13.50
2015,09,10,02,45,13.50
2015,09,10,02,46,13.50
2015,09,10,02,47,13.40
2015,09,10,02,48,13.30
2015,09,10,02,49,13.30
2015,09,10,02,50,13.30
2015,09,10,02,51,13.30
2015,09,10,02,52,13.20
2015,09,10,02,53,13.00
2015,09,10,02,54,12.90
2015,09,10,02,55,12.90
2015,09,10,02,56,12.80
2015,09,10,02,57,12.90
2015,09,10,02,58,13.00
2015,09,10,02,59,13.10
2015,09,10,03,00,13.10
2015,09,10,03,01,13.10
2015,09,10,03,02,13.10
2015,09,10,03,03,13.10
2015,09,10,03,04,13.20
2015,09,10,03,05,13.20
2015,09,10,03,06,13.10
2015,09,10,03,07,13.00
2015,09,10,03,08,13.00
2015,09,10,03,09,13.10
2015,09,10,03,10,13.10
2015,09,10,03,11,13.10
2015,09,10,03,12,13.10
2015,09,10,03,13,13.10
2015,09,10,03,14,13.10
2015,09,10,03,15,13.10
2015,09,10,03,16,13.20
2015,09,10,03,17,13.20
2015,09,10,03,18,13.30
2015,09,10,03,19,13.30
2015,09,10,03,20,13.30
2015,09,10,03,21,13.30
2015,09,10,03,22,13.30
2015,09,10,03,23,13.40
2015,09,10,03,24,13.40
2015,09,10,03,25,13.40
2015,09,10,03,26,13.40
2015,09,10,03,27,13.40
2015,09,10,03,28,13.40
2015,09,10,03,29,13.40
2015,09,10,03,30,13.40
2015,09,10,03,31,13.40
2015,09,10,03,32,13.40
2015,09,10,03,33,13.40
2015,09,10,03,34,13.40
2015,09,10,03,35,13.40
2015,09,10,03,36,13.40
2015,09,10,03,37,13.40
2015,09,10,03,38,13.40
2015,09,10,03,39,13.30
2015,09,10,03,40,13.20
2015,09,10,03,41,13.00
2015,09,10,03,42,13.10
2015,09,10,03,43,13.10
2015,09,10,03,44,13.10
2015,09,10,03,45,13.00
2015,09,10,03,46,13.00
2015,09,10,03,47,13.10
2015,09,10,03,48,13.10
2015,09,10,03,49,13.10
2015,09,10,03,50,13.10
2015,09,10,03,51,13.10
2015,09,10,03,52,13.20
2015,09,10,03,53,13.20
2015,09,10,03,54,13.20
2015,09,10,03,55,13.20
2015,09,10,03,56,13.30
2015,09,10,03,57,13.30
2015,09,10,03,58,13.30
2015,09,10,03,59,13.30
2015,09,10,04,00,13.30
2015,09,10,04,01,13.40
2015,09,10,04,02,13.40
2015,09,10,04,03,13.40
2015,09,10,04,04,13.40
2015,09,10,04,05,13.40
2015,09,10,04,06,13.50
2015,09,10,04,07,13.50
2015,09,10,04,08,13.60
2015,09,10,04,09,13.60
2015,09,10,04,10,13.70
2015,09,10,04,11,13.70
2015,09,10,04,12,13.80
2015,09,10,04,13,13.80
2015,09,10,04,14,13.80
2015,09,10,04,15,13.80
2015,09,10,04,16,13.80
2015,09,10,04,17,13.80
2015,09,10,04,18,13.80
2015,09,10,04,19,13.80
2015,09,10,04,20,13.70
2015,09,10,04,21,13.60
2015,09,10,04,22,13.60
2015,09,10,04,23,13.60
2015,09,10,04,24,13.60
2015,09,10,04,25,13.60
2015,09,10,04,26,13.60
2015,09,10,04,27,13.60
2015,09,10,04,28,13.60
2015,09,10,04,29,13.60
2015,09,10,04,30,13.60
2015,09,10,04,31,13.70
2015,09,10,04,32,13.70
2015,09,10,04,33,13.70
2015,09,10,04,34,13.70
2015,09,10,04,35,13.70
2015,09,10,04,36,13.70
2015,09,10,04,37,13.70
2015,09,10,04,38,13.70
2015,09,10,04,39,13.70
2015,09,10,04,40,13.70
2015,09,10,04,41,13.70
2015,09,10,04,42,13.70
2015,09,10,04,43,13.70
2015,09,10,04,44,13.70
2015,09,10,04,45,13.80
2015,09,10,04,46,13.80
2015,09,10,04,47,13.80
2015,09,10,04,48,13.80
2015,09,10,04,49,13.90
2015,09,10,04,50,13.90
2015,09,10,04,51,13.90
2015,09,10,04,52,13.90
2015,09,10,04,53,14.00
2015,09,10,04,54,14.00
2015,09,10,04,55,14.10
2015,09,10,04,56,14.10
2015,09,10,04,57,14.10
2015,09,10,04,58,14.10
2015,09,10,04,59,14.10
2015,09,10,05,00,14.20
2015,09,10,05,01,14.20
2015,09,10,05,02,14.20
2015,09,10,05,03,14.20
2015,09,10,05,04,14.20
2015,09,10,05,05,14.20
2015,09,10,05,06,14.20
2015,09,10,05,07,14.20
2015,09,10,05,08,14.20
2015,09,10,05,09,14.20
2015,09,10,05,10,14.20
2015,09,10,05,11,14.20
2015,09,10,05,12,14.10
2015,09,10,05,13,14.10
2015,09,10,05,14,14.10
2015,09,10,05,15,14.10
2015,09,10,05,16,14.10
2015,09,10,05,17,14.10
2015,09,10,05,18,14.10
2015,09,10,05,19,14.10
2015,09,10,05,20,14.10
2015,09,10,05,21,14.10
2015,09,10,05,22,14.10
2015,09,10,05,23,14.10
2015,09,10,05,24,14.10
2015,09,10,05,25,14.10
2015,09,10,05,26,14.00
2015,09,10,05,27,14.00
2015,09,10,05,28,14.00
2015,09,10,05,29,14.00
2015,09,10,05,30,14.00
2015,09,10,05,31,14.00
2015,09,10,05,32,14.10
2015,09,10,05,33,14.10
2015,09,10,05,34,14.10
2015,09,10,05,35,14.10
2015,09,10,05,36,14.00
2015,09,10,05,37,14.00
2015,09,10,05,38,14.00
2015,09,10,05,39,14.00
2015,09,10,05,40,14.00
2015,09,10,05,41,14.00
2015,09,10,05,42,14.00
2015,09,10,05,43,14.00
2015,09,10,05,44,14.00
2015,09,10,05,45,14.00
2015,09,10,05,46,13.90
2015,09,10,05,47,13.90
2015,09,10,05,48,13.90
2015,09,10,05,49,13.90
2015,09,10,05,50,13.90
2015,09,10,05,51,13.90
2015,09,10,05,52,13.90
2015,09,10,05,53,13.90
2015,09,10,05,54,13.90
2015,09,10,05,55,13.90
2015,09,10,05,56,13.90
2015,09,10,05,57,13.90
2015,09,10,05,58,13.90
2015,09,10,05,59,13.80
2015,09,10,06,00,13.70
2015,09,10,06,01,13.70
2015,09,10,06,02,13.70
2015,09,10,06,03,13.60
2015,09,10,06,04,13.50
2015,09,10,06,05,13.40
2015,09,10,06,06,13.30
2015,09,10,06,07,13.20
2015,09,10,06,08,13.00
2015,09,10,06,09,12.90
2015,09,10,06,10,12.80
2015,09,10,06,11,12.70
2015,09,10,06,12,12.60
2015,09,10,06,13,12.60
2015,09,10,06,14,12.50
2015,09,10,06,15,12.50
2015,09,10,06,16,12.50
2015,09,10,06,17,12.40
2015,09,10,06,18,12.50
2015,09,10,06,19,12.50
2015,09,10,06,20,12.50
2015,09,10,06,21,12.50
2015,09,10,06,22,12.50
2015,09,10,06,23,12.40
2015,09,10,06,24,12.30
2015,09,10,06,25,12.30
2015,09,10,06,26,12.30
2015,09,10,06,27,12.20
2015,09,10,06,28,12.20
2015,09,10,06,29,12.20
2015,09,10,06,30,12.20
2015,09,10,06,31,12.20
2015,09,10,06,32,12.30
2015,09,10,06,33,12.20
2015,09,10,06,34,12.20
2015,09,10,06,35,12.10
2015,09,10,06,36,12.20
2015,09,10,06,37,12.20
2015,09,10,06,38,12.20
2015,09,10,06,39,12.30
2015,09,10,06,40,12.30
2015,09,10,06,41,12.20
2015,09,10,06,42,12.10
2015,09,10,06,43,12.10
2015,09,10,06,44,12.10
2015,09,10,06,45,12.00
2015,09,10,06,46,12.10
2015,09,10,06,47,12.10
2015,09,10,06,48,12.10
2015,09,10,06,49,12.10
2015,09,10,06,50,12.00
2015,09,10,06,51,12.00
2015,09,10,06,52,11.90
2015,09,10,06,53,11.90
2015,09,10,06,54,11.90
2015,09,10,06,55,11.80
2015,09,10,06,56,11.80
2015,09,10,06,57,11.80
2015,09,10,06,58,11.80
2015,09,10,06,59,11.70
2015,09,10,07,00,11.70
2015,09,10,07,01,11.70
2015,09,10,07,02,11.70
2015,09,10,07,03,11.60
2015,09,10,07,04,11.60
2015,09,10,07,05,11.60
2015,09,10,07,06,11.60
2015,09,10,07,07,11.60
2015,09,10,07,08,11.60
2015,09,10,07,09,11.50
2015,09,10,07,10,11.50
2015,09,10,07,11,11.50
2015,09,10,07,12,11.50
2015,09,10,07,13,11.50
2015,09,10,07,14,11.40
2015,09,10,07,15,11.40
2015,09,10,07,16,11.40
2015,09,10,07,17,11.40
2015,09,10,07,18,11.40
2015,09,10,07,19,11.40
2015,09,10,07,20,11.40
2015,09,10,07,21,11.40
2015,09,10,07,22,11.40
2015,09,10,07,23,11.40
2015,09,10,07,24,11.30
2015,09,10,07,25,11.30
2015,09,10,07,26,11.30
2015,09,10,07,27,11.30
2015,09,10,07,28,11.30
2015,09,10,07,29,11.30
2015,09,10,07,30,11.30
2015,09,10,07,31,11.30
2015,09,10,07,32,11.30
2015,09,10,07,33,11.20
2015,09,10,07,34,11.20
2015,09,10,07,35,11.20
2015,09,10,07,36,11.20
2015,09,10,07,37,11.20
2015,09,10,07,38,11.20
2015,09,10,07,39,11.20
2015,09,10,07,40,11.20
2015,09,10,07,41,11.20
2015,09,10,07,42,11.20
2015,09,10,07,43,11.20
2015,09,10,07,44,11.20
2015,09,10,07,45,11.10
2015,09,10,07,46,11.10
2015,09,10,07,47,11.10
2015,09,10,07,48,11.10
2015,09,10,07,49,11.10
2015,09,10,07,50,11.10
2015,09,10,07,51,11.10
2015,09,10,07,52,11.10
2015,09,10,07,53,11.10
2015,09,10,07,54,11.10
2015,09,10,07,55,11.20
2015,09,10,07,56,11.20
2015,09,10,07,57,11.20
2015,09,10,07,58,11.20
2015,09,10,07,59,11.20
2015,09,10,08,00,11.30
2015,09,10,08,01,11.30
2015,09,10,08,02,11.30
2015,09,10,08,03,11.40
2015,09,10,08,04,11.40
2015,09,10,08,05,11.40
2015,09,10,08,06,11.60
2015,09,10,08,07,11.70
2015,09,10,08,08,11.80
2015,09,10,08,09,11.90
2015,09,10,08,10,12.00
2015,09,10,08,11,12.10
2015,09,10,08,12,12.10
2015,09,10,08,13,12.20
2015,09,10,08,14,12.20
2015,09,10,08,15,12.20
2015,09,10,08,16,12.30
2015,09,10,08,17,12.30
2015,09,10,08,18,12.40
2015,09,10,08,19,12.40
2015,09,10,08,20,12.50
2015,09,10,08,21,12.70
2015,09,10,08,22,12.70
2015,09,10,08,23,12.70
2015,09,10,08,24,12.70
2015,09,10,08,25,12.70
2015,09,10,08,26,12.70
2015,09,10,08,27,12.80
2015,09,10,08,28,12.90
2015,09,10,08,29,13.00
2015,09,10,08,30,13.00
2015,09,10,08,31,13.10
2015,09,10,08,32,13.20
2015,09,10,08,33,13.10
2015,09,10,08,34,13.10
2015,09,10,08,35,13.10
2015,09,10,08,36,13.10
2015,09,10,08,37,13.00
2015,09,10,08,38,13.00
2015,09,10,08,39,13.00
2015,09,10,08,40,12.80
2015,09,10,08,41,12.60
2015,09,10,08,42,12.40
2015,09,10,08,43,12.40
2015,09,10,08,44,12.50
2015,09,10,08,45,12.70
2015,09,10,08,46,12.80
2015,09,10,08,47,13.00
2015,09,10,08,48,13.10
2015,09,10,08,49,13.30
2015,09,10,08,50,13.30
2015,09,10,08,51,13.40
2015,09,10,08,52,13.40
2015,09,10,08,53,13.50
2015,09,10,08,54,13.40
2015,09,10,08,55,13.40
2015,09,10,08,56,13.30
2015,09,10,08,57,13.40
2015,09,10,08,58,13.50
2015,09,10,08,59,13.40
2015,09,10,09,00,13.30
2015,09,10,09,01,13.10
2015,09,10,09,02,13.00
2015,09,10,09,03,12.70
2015,09,10,09,04,12.50
2015,09,10,09,05,12.50
2015,09,10,09,06,12.70
2015,09,10,09,07,12.90
2015,09,10,09,08,12.90
2015,09,10,09,09,13.10
2015,09,10,09,10,13.20
2015,09,10,09,11,13.20
2015,09,10,09,12,13.10
2015,09,10,09,13,12.90
2015,09,10,09,14,12.80
2015,09,10,09,15,12.80
2015,09,10,09,16,12.80
2015,09,10,09,17,12.90
2015,09,10,09,18,13.00
2015,09,10,09,19,12.90
2015,09,10,09,20,12.80
2015,09,10,09,21,12.80
2015,09,10,09,22,12.90
2015,09,10,09,23,12.90
2015,09,10,09,24,13.00
2015,09,10,09,25,13.00
2015,09,10,09,26,12.90
2015,09,10,09,27,12.80
2015,09,10,09,28,12.80
2015,09,10,09,29,12.80
2015,09,10,09,30,12.90
2015,09,10,09,31,13.00
2015,09,10,09,32,13.20
2015,09,10,09,33,13.30
2015,09,10,09,34,13.30
2015,09,10,09,35,13.30
2015,09,10,09,36,13.40
2015,09,10,09,37,13.50
2015,09,10,09,38,13.60
2015,09,10,09,39,13.70
2015,09,10,09,40,13.80
2015,09,10,09,41,13.90
2015,09,10,09,42,14.00
2015,09,10,09,43,14.00
2015,09,10,09,44,13.90
2015,09,10,09,45,13.70
2015,09,10,09,46,13.80
2015,09,10,09,47,13.90
2015,09,10,09,48,14.00
2015,09,10,09,49,14.00
2015,09,10,09,50,14.10
2015,09,10,09,51,14.20
2015,09,10,09,52,14.30
2015,09,10,09,53,14.30
2015,09,10,09,54,14.40
2015,09,10,09,55,14.40
2015,09,10,09,56,14.50
2015,09,10,09,57,14.60
2015,09,10,09,58,14.70
2015,09,10,09,59,14.80
2015,09,10,10,00,14.90
2015,09,10,10,01,14.90
2015,09,10,10,02,15.00
2015,09,10,10,03,15.00
2015,09,10,10,04,15.00
2015,09,10,10,05,15.00
2015,09,10,10,06,15.00
2015,09,10,10,07,15.00
2015,09,10,10,08,15.00
2015,09,10,10,09,15.00
2015,09,10,10,10,15.10
2015,09,10,10,11,15.20
2015,09,10,10,12,15.20
2015,09,10,10,13,15.30
2015,09,10,10,14,15.30
2015,09,10,10,15,15.30
2015,09,10,10,16,15.40
2015,09,10,10,17,15.40
2015,09,10,10,18,15.40
2015,09,10,10,19,15.40
2015,09,10,10,20,15.40
2015,09,10,10,21,15.50
2015,09,10,10,22,15.50
2015,09,10,10,23,15.60
2015,09,10,10,24,15.60
2015,09,10,10,25,15.70
2015,09,10,10,26,15.60
2015,09,10,10,27,15.70
2015,09,10,10,28,15.70
2015,09,10,10,29,15.80
2015,09,10,10,30,15.80
2015,09,10,10,31,15.80
2015,09,10,10,32,15.90
2015,09,10,10,33,15.90
2015,09,10,10,34,16.00
2015,09,10,10,35,16.00
2015,09,10,10,36,16.10
2015,09,10,10,37,16.10
2015,09,10,10,38,16.10
2015,09,10,10,39,16.10
2015,09,10,10,40,16.10
2015,09,10,10,41,16.10
2015,09,10,10,42,16.10
2015,09,10,10,43,16.10
2015,09,10,10,44,16.10
2015,09,10,10,45,16.10
2015,09,10,10,46,16.20
2015,09,10,10,47,16.20
2015,09,10,10,48,16.20
2015,09,10,10,49,16.20
2015,09,10,10,50,16.20
2015,09,10,10,51,16.20
2015,09,10,10,52,16.20
2015,09,10,10,53,16.20
2015,09,10,10,54,16.20
2015,09,10,10,55,16.20
2015,09,10,10,56,16.30
2015,09,10,10,57,16.30
2015,09,10,10,58,16.40
2015,09,10,10,59,16.40
2015,09,10,11,00,16.40
2015,09,10,11,01,16.40
2015,09,10,11,02,16.40
2015,09,10,11,03,16.40
2015,09,10,11,04,16.50
2015,09,10,11,05,16.50
2015,09,10,11,06,16.50
2015,09,10,11,07,16.50
2015,09,10,11,08,16.50
2015,09,10,11,09,16.50
2015,09,10,11,10,16.50
2015,09,10,11,11,16.50
2015,09,10,11,12,16.50
2015,09,10,11,13,16.50
2015,09,10,11,14,16.50
2015,09,10,11,15,16.50
2015,09,10,11,16,16.50
2015,09,10,11,17,16.60
2015,09,10,11,18,16.60
2015,09,10,11,19,16.60
2015,09,10,11,20,16.60
2015,09,10,11,21,16.60
2015,09,10,11,22,16.70
2015,09,10,11,23,16.70
2015,09,10,11,24,16.70
2015,09,10,11,25,16.70
2015,09,10,11,26,16.70
2015,09,10,11,27,16.80
2015,09,10,11,28,16.80
2015,09,10,11,29,16.80
2015,09,10,11,30,16.80
2015,09,10,11,31,16.80
2015,09,10,11,32,16.80
2015,09,10,11,33,16.80
2015,09,10,11,34,16.80
2015,09,10,11,35,16.80
2015,09,10,11,36,16.80
2015,09,10,11,37,16.80
2015,09,10,11,38,16.80
2015,09,10,11,39,16.80
2015,09,10,11,40,16.80
2015,09,10,11,41,16.80
2015,09,10,11,42,16.80
2015,09,10,11,43,16.80
2015,09,10,11,44,16.80
2015,09,10,11,45,16.80
2015,09,10,11,46,16.80
2015,09,10,11,47,16.90
2015,09,10,11,48,16.90
2015,09,10,11,49,16.90
2015,09,10,11,50,16.90
2015,09,10,11,51,16.90
2015,09,10,11,52,16.90
2015,09,10,11,53,16.90
2015,09,10,11,54,16.90
2015,09,10,11,55,16.90
2015,09,10,11,56,16.90
2015,09,10,11,57,16.90
2015,09,10,11,58,16.80
2015,09,10,11,59,16.90
2015,09,10,12,00,16.90
2015,09,10,12,01,16.90
2015,09,10,12,02,16.90
2015,09,10,12,03,16.90
2015,09,10,12,04,16.90
2015,09,10,12,05,16.90
2015,09,10,12,06,16.90
2015,09,10,12,07,16.90
2015,09,10,12,08,16.90
2015,09,10,12,09,16.90
2015,09,10,12,10,17.00
2015,09,10,12,11,17.00
2015,09,10,12,12,17.10
2015,09,10,12,13,17.10
2015,09,10,12,14,17.10
2015,09,10,12,15,17.20
2015,09,10,12,16,17.20
2015,09,10,12,17,17.30
2015,09,10,12,18,17.30
2015,09,10,12,19,17.30
2015,09,10,12,20,17.40
2015,09,10,12,21,17.40
2015,09,10,12,22,17.50
2015,09,10,12,23,17.50
2015,09,10,12,24,17.50
2015,09,10,12,25,17.50
2015,09,10,12,26,17.50
2015,09,10,12,27,17.50
2015,09,10,12,28,17.50
2015,09,10,12,29,17.50
2015,09,10,12,30,17.60
2015,09,10,12,31,17.60
2015,09,10,12,32,17.60
2015,09,10,12,33,17.60
2015,09,10,12,34,17.70
2015,09,10,12,35,17.70
2015,09,10,12,36,17.70
2015,09,10,12,37,17.70
2015,09,10,12,38,17.70
2015,09,10,12,39,17.70
2015,09,10,12,40,17.70
2015,09,10,12,41,17.70
2015,09,10,12,42,17.70
2015,09,10,12,43,17.70
2015,09,10,12,44,17.80
2015,09,10,12,45,17.80
2015,09,10,12,46,17.80
2015,09,10,12,47,17.80
2015,09,10,12,48,17.80
2015,09,10,12,49,17.80
2015,09,10,12,50,17.80
2015,09,10,12,51,17.80
2015,09,10,12,52,17.80
2015,09,10,12,53,17.80
2015,09,10,12,54,17.80
2015,09,10,12,55,17.90
2015,09,10,12,56,17.90
2015,09,10,12,57,17.90
2015,09,10,12,58,17.90
2015,09,10,12,59,18.00
2015,09,10,13,00,18.00
2015,09,10,13,01,18.10
2015,09,10,13,02,18.10
2015,09,10,13,03,18.20
2015,09,10,13,04,18.20
2015,09,10,13,05,18.20
2015,09,10,13,06,18.20
2015,09,10,13,07,18.10
2015,09,10,13,08,18.00
2015,09,10,13,09,18.00
2015,09,10,13,10,17.90
2015,09,10,13,11,17.90
2015,09,10,13,12,17.90
2015,09,10,13,13,17.90
2015,09,10,13,14,17.90
2015,09,10,13,15,17.90
2015,09,10,13,16,17.90
2015,09,10,13,17,18.00
2015,09,10,13,18,18.00
2015,09,10,13,19,18.10
2015,09,10,13,20,18.10
2015,09,10,13,21,18.10
2015,09,10,13,22,18.20
2015,09,10,13,23,18.20
2015,09,10,13,24,18.20
2015,09,10,13,25,18.20
2015,09,10,13,26,18.20
2015,09,10,13,27,18.20
2015,09,10,13,28,18.20
2015,09,10,13,29,18.20
2015,09,10,13,30,18.20
2015,09,10,13,31,18.30
2015,09,10,13,32,18.30
2015,09,10,13,33,18.40
2015,09,10,13,34,18.40
2015,09,10,13,35,18.40
2015,09,10,13,36,18.40
2015,09,10,13,37,18.40
2015,09,10,13,38,18.40
2015,09,10,13,39,18.50
2015,09,10,13,40,18.50
2015,09,10,13,41,18.60
2015,09,10,13,42,18.60
2015,09,10,13,43,18.60
2015,09,10,13,44,18.60
2015,09,10,13,45,18.70
2015,09,10,13,46,18.70
2015,09,10,13,47,18.70
2015,09,10,13,48,18.70
2015,09,10,13,49,18.70
2015,09,10,13,50,18.70
2015,09,10,13,51,18.70
2015,09,10,13,52,18.70
2015,09,10,13,53,18.60
2015,09,10,13,54,18.60
2015,09,10,13,55,18.60
2015,09,10,13,56,18.60
2015,09,10,13,57,18.60
2015,09,10,13,58,18.60
2015,09,10,13,59,18.70
2015,09,10,14,00,18.70
2015,09,10,14,01,18.60
2015,09,10,14,02,18.60
2015,09,10,14,03,18.70
2015,09,10,14,04,18.70
2015,09,10,14,05,18.70
2015,09,10,14,06,18.70
2015,09,10,14,07,18.70
2015,09,10,14,08,18.70
2015,09,10,14,09,18.70
2015,09,10,14,10,18.70
2015,09,10,14,11,18.70
2015,09,10,14,12,18.70
2015,09,10,14,13,18.70
2015,09,10,14,14,18.70
2015,09,10,14,15,18.70
2015,09,10,14,16,18.70
2015,09,10,14,17,18.70
2015,09,10,14,18,18.70
2015,09,10,14,19,18.70
2015,09,10,14,20,18.80
2015,09,10,14,21,18.80
2015,09,10,14,22,18.80
2015,09,10,14,23,18.80
2015,09,10,14,24,18.80
2015,09,10,14,25,18.80
2015,09,10,14,26,18.90
2015,09,10,14,27,18.90
2015,09,10,14,28,18.90
2015,09,10,14,29,19.00
2015,09,10,14,30,19.00
2015,09,10,14,31,19.00
2015,09,10,14,32,19.00
2015,09,10,14,33,19.10
2015,09,10,14,34,19.10
2015,09,10,14,35,19.10
2015,09,10,14,36,19.10
2015,09,10,14,37,19.10
2015,09,10,14,38,19.10
2015,09,10,14,39,19.20
2015,09,10,14,40,19.20
2015,09,10,14,41,19.20
2015,09,10,14,42,19.20
2015,09,10,14,43,19.20
2015,09,10,14,44,19.10
2015,09,10,14,45,19.20
2015,09,10,14,46,19.20
2015,09,10,14,47,19.20
2015,09,10,14,48,19.20
2015,09,10,14,49,19.20
2015,09,10,14,50,19.20
2015,09,10,14,51,19.20
2015,09,10,14,52,19.20
2015,09,10,14,53,19.20
2015,09,10,14,54,19.20
2015,09,10,14,55,19.20
2015,09,10,14,56,19.20
2015,09,10,14,57,19.20
2015,09,10,14,58,19.20
2015,09,10,14,59,19.10
2015,09,10,15,00,19.10
2015,09,10,15,01,19.10
2015,09,10,15,02,19.20
2015,09,10,15,03,19.20
2015,09,10,15,04,19.20
2015,09,10,15,05,19.20
2015,09,10,15,06,19.20
2015,09,10,15,07,19.20
2015,09,10,15,08,19.20
2015,09,10,15,09,19.20
2015,09,10,15,10,19.20
2015,09,10,15,11,19.20
2015,09,10,15,12,19.20
2015,09,10,15,13,19.20
2015,09,10,15,14,19.20
2015,09,10,15,15,19.20
2015,09,10,15,16,19.20
2015,09,10,15,17,19.20
2015,09,10,15,18,19.20
2015,09,10,15,19,19.20
2015,09,10,15,20,19.20
2015,09,10,15,21,19.20
2015,09,10,15,22,19.20
2015,09,10,15,23,19.20
2015,09,10,15,24,19.20
2015,09,10,15,25,19.20
2015,09,10,15,26,19.20
2015,09,10,15,27,19.20
2015,09,10,15,28,19.20
2015,09,10,15,29,19.20
2015,09,10,15,30,19.20
2015,09,10,15,31,19.20
2015,09,10,15,32,19.20
2015,09,10,15,33,19.20
2015,09,10,15,34,19.20
2015,09,10,15,35,19.20
2015,09,10,15,36,19.20
2015,09,10,15,37,19.20
2015,09,10,15,38,19.30
2015,09,10,15,39,19.30
2015,09,10,15,40,19.30
2015,09,10,15,41,19.30
2015,09,10,15,42,19.30
2015,09,10,15,43,19.30
2015,09,10,15,44,19.30
2015,09,10,15,45,19.30
2015,09,10,15,46,19.30
2015,09,10,15,47,19.30
2015,09,10,15,48,19.40
2015,09,10,15,49,19.40
2015,09,10,15,50,19.40
2015,09,10,15,51,19.40
2015,09,10,15,52,19.50
2015,09,10,15,53,19.60
2015,09,10,15,54,19.60
2015,09,10,15,55,19.60
2015,09,10,15,56,19.70
2015,09,10,15,57,19.70
2015,09,10,15,58,19.70
2015,09,10,15,59,19.60
2015,09,10,16,00,19.60
2015,09,10,16,01,19.60
2015,09,10,16,02,19.60
2015,09,10,16,03,19.60
2015,09,10,16,04,19.60
2015,09,10,16,05,19.60
2015,09,10,16,06,19.50
2015,09,10,16,07,19.40
2015,09,10,16,08,19.40
2015,09,10,16,09,19.30
2015,09,10,16,10,19.20
2015,09,10,16,11,19.10
2015,09,10,16,12,19.10
2015,09,10,16,13,19.00
2015,09,10,16,14,18.90
2015,09,10,16,15,18.90
2015,09,10,16,16,18.80
2015,09,10,16,17,18.60
2015,09,10,16,18,18.50
2015,09,10,16,19,18.50
2015,09,10,16,20,18.50
2015,09,10,16,21,18.40
2015,09,10,16,22,18.40
2015,09,10,16,23,18.40
2015,09,10,16,24,18.40
2015,09,10,16,25,18.40
2015,09,10,16,26,18.40
2015,09,10,16,27,18.50
2015,09,10,16,28,18.50
2015,09,10,16,29,18.60
2015,09,10,16,30,18.60
2015,09,10,16,31,18.60
2015,09,10,16,32,18.60
2015,09,10,16,33,18.60
2015,09,10,16,34,18.50
2015,09,10,16,35,18.60
2015,09,10,16,36,18.60
2015,09,10,16,37,18.60
2015,09,10,16,38,18.60
2015,09,10,16,39,18.60
2015,09,10,16,40,18.60
2015,09,10,16,41,18.60
2015,09,10,16,42,18.60
2015,09,10,16,43,18.60
2015,09,10,16,44,18.60
2015,09,10,16,45,18.60
2015,09,10,16,46,18.50
2015,09,10,16,47,18.50
2015,09,10,16,48,18.50
2015,09,10,16,49,18.60
2015,09,10,16,50,18.60
2015,09,10,16,51,18.50
2015,09,10,16,52,18.50
2015,09,10,16,53,18.50
2015,09,10,16,54,18.40
2015,09,10,16,55,18.40
2015,09,10,16,56,18.40
2015,09,10,16,57,18.30
2015,09,10,16,58,18.30
2015,09,10,16,59,18.30
2015,09,10,17,00,18.30
2015,09,10,17,01,18.30
2015,09,10,17,02,18.30
2015,09,10,17,03,18.30
2015,09,10,17,04,18.30
2015,09,10,17,05,18.20
2015,09,10,17,06,18.10
2015,09,10,17,07,17.90
2015,09,10,17,08,17.80
2015,09,10,17,09,17.70
2015,09,10,17,10,17.70
2015,09,10,17,11,17.70
2015,09,10,17,12,17.70
2015,09,10,17,13,17.70
2015,09,10,17,14,17.70
2015,09,10,17,15,17.70
2015,09,10,17,16,17.70
2015,09,10,17,17,17.60
2015,09,10,17,18,17.50
2015,09,10,17,19,17.30